DAL1654 KMCO-KJFK

Flight info

Callsign DAL1654
Flight time 2h 7m
Altitude 37000
Route FATHE4 VIYAP Q87 JROSS JOHAR Q109 DFENC SAWED Q108 SIE CAMRN5
Aircraft A320/M-SDE3FGHIRWY/LB1

Departure

Time 2026-05-09 13:16
Airport Orlando International Airport (KMCO)

Arrival

Time 2026-05-09 15:24
Airport John F. Kennedy International Airport (KJFK)
Time Latitude Longitude Altitude Speed Heading
2026-05-09 12:53 28.42794 -81.30002 102 ft 0 kts 306°
2026-05-09 13:06 28.42793 -81.30001 94 ft 2 kts 306°
2026-05-09 13:06 28.42778 -81.29978 102 ft 4 kts 309°
2026-05-09 13:06 28.42760 -81.29955 101 ft 4 kts 312°
2026-05-09 13:07 28.42742 -81.29932 101 ft 4 kts 311°
2026-05-09 13:07 28.42727 -81.29913 101 ft 4 kts 301°
2026-05-09 13:07 28.42722 -81.29890 102 ft 4 kts 231°
2026-05-09 13:07 28.42741 -81.29882 102 ft 4 kts 179°
2026-05-09 13:08 28.42751 -81.29882 103 ft 0 kts 179°
2026-05-09 13:10 28.42721 -81.29882 103 ft 12 kts 178°
2026-05-09 13:10 28.42640 -81.29872 103 ft 11 kts 158°
2026-05-09 13:10 28.42587 -81.29817 103 ft 10 kts 135°
2026-05-09 13:10 28.42526 -81.29790 103 ft 10 kts 179°
2026-05-09 13:11 28.42459 -81.29793 103 ft 9 kts 182°
2026-05-09 13:11 28.42397 -81.29794 102 ft 9 kts 180°
2026-05-09 13:11 28.42288 -81.29794 102 ft 23 kts 179°
2026-05-09 13:11 28.42121 -81.29790 102 ft 25 kts 179°
2026-05-09 13:12 28.41940 -81.29786 102 ft 27 kts 179°
2026-05-09 13:12 28.41747 -81.29784 102 ft 29 kts 179°
2026-05-09 13:12 28.41601 -81.29782 102 ft 0 kts 181°
2026-05-09 13:13 28.41562 -81.29783 102 ft 15 kts 181°
2026-05-09 13:13 28.41459 -81.29781 102 ft 14 kts 179°
2026-05-09 13:13 28.41353 -81.29780 101 ft 20 kts 180°
2026-05-09 13:14 28.41192 -81.29780 101 ft 24 kts 180°
2026-05-09 13:14 28.41018 -81.29779 101 ft 26 kts 179°
2026-05-09 13:16 28.41760 -81.29572 105 ft 130 kts 359°
2026-05-09 13:16 28.42835 -81.29582 219 ft 169 kts 359°
2026-05-09 13:16 28.43981 -81.29616 1011 ft 164 kts 357°
2026-05-09 13:16 28.45108 -81.29447 1702 ft 166 kts 23°
2026-05-09 13:17 28.46167 -81.28817 2149 ft 181 kts 30°
2026-05-09 13:17 28.47330 -81.28064 2452 ft 204 kts 30°
2026-05-09 13:17 28.48635 -81.27206 2774 ft 229 kts 30°
2026-05-09 13:17 28.50090 -81.26246 3172 ft 254 kts 29°
2026-05-09 13:18 28.51762 -81.25385 3644 ft 274 kts 10°
2026-05-09 13:18 28.53680 -81.25181 4462 ft 280 kts
2026-05-09 13:18 28.55632 -81.25104 5398 ft 282 kts 357°
2026-05-09 13:18 28.57594 -81.25149 6365 ft 282 kts 356°
2026-05-09 13:19 28.59547 -81.25376 7255 ft 283 kts 349°
2026-05-09 13:19 28.61504 -81.25709 8142 ft 286 kts 349°
2026-05-09 13:19 28.63482 -81.26033 9016 ft 289 kts 349°
2026-05-09 13:19 28.65488 -81.26329 9874 ft 293 kts 349°
2026-05-09 13:20 28.67554 -81.26614 10357 ft 311 kts 349°
2026-05-09 13:20 28.69772 -81.26915 10744 ft 329 kts 350°
2026-05-09 13:20 28.72067 -81.27220 11413 ft 335 kts 350°
2026-05-09 13:20 28.74399 -81.27528 12141 ft 340 kts 349°
2026-05-09 13:21 28.76763 -81.27843 12851 ft 344 kts 349°
2026-05-09 13:21 28.79157 -81.28167 13564 ft 348 kts 349°
2026-05-09 13:21 28.81581 -81.28499 14206 ft 353 kts 348°
2026-05-09 13:21 28.84036 -81.28834 14809 ft 357 kts 348°
2026-05-09 13:22 28.86521 -81.29122 15440 ft 362 kts 350°
2026-05-09 13:22 28.89044 -81.29349 16074 ft 366 kts 351°
2026-05-09 13:22 28.91597 -81.29546 16702 ft 369 kts 351°
2026-05-09 13:23 29.02051 -81.30406 19113 ft 383 kts 348°
2026-05-09 13:23 29.04716 -81.30695 19668 ft 386 kts 347°
2026-05-09 13:24 29.07398 -81.31007 20245 ft 389 kts 347°
2026-05-09 13:24 29.10106 -81.31329 20787 ft 393 kts 347°
2026-05-09 13:24 29.12810 -81.31611 21324 ft 398 kts 348°
2026-05-09 13:24 29.15590 -81.31817 21864 ft 403 kts 349°
2026-05-09 13:25 29.18406 -81.31975 22406 ft 407 kts 350°
2026-05-09 13:25 29.21241 -81.32113 22932 ft 411 kts 350°
2026-05-09 13:25 29.27006 -81.32400 23916 ft 418 kts 349°
2026-05-09 13:26 29.29914 -81.32559 24392 ft 419 kts 349°
2026-05-09 13:26 29.32833 -81.32729 24839 ft 421 kts 349°
2026-05-09 13:26 29.35767 -81.32907 25274 ft 423 kts 348°
2026-05-09 13:26 29.38716 -81.33088 25707 ft 426 kts 348°
2026-05-09 13:27 29.41682 -81.33272 26115 ft 428 kts 348°
2026-05-09 13:27 29.44661 -81.33458 26517 ft 430 kts 348°
2026-05-09 13:27 29.47661 -81.33643 26922 ft 433 kts 348°
2026-05-09 13:27 29.50677 -81.33824 27330 ft 435 kts 348°
2026-05-09 13:28 29.53711 -81.34005 27743 ft 438 kts 348°
2026-05-09 13:28 29.56761 -81.34187 28142 ft 440 kts 348°
2026-05-09 13:28 29.59826 -81.34373 28492 ft 443 kts 348°
2026-05-09 13:28 29.62917 -81.34561 28856 ft 446 kts 348°
2026-05-09 13:29 29.66027 -81.34747 29210 ft 449 kts 348°
2026-05-09 13:29 29.69155 -81.34928 29562 ft 451 kts 348°
2026-05-09 13:29 29.72301 -81.35105 29906 ft 454 kts 348°
2026-05-09 13:29 29.75464 -81.35281 30210 ft 456 kts 348°
2026-05-09 13:30 29.78641 -81.35460 30502 ft 458 kts 347°
2026-05-09 13:30 29.81830 -81.35642 30790 ft 459 kts 347°
2026-05-09 13:30 29.85016 -81.35826 31117 ft 460 kts 347°
2026-05-09 13:30 29.88217 -81.36011 31404 ft 461 kts 347°
2026-05-09 13:31 29.91424 -81.36195 31691 ft 462 kts 347°
2026-05-09 13:31 29.94626 -81.36375 32083 ft 459 kts 347°
2026-05-09 13:31 29.97811 -81.36551 32491 ft 457 kts 347°
2026-05-09 13:31 30.00978 -81.36729 32910 ft 454 kts 346°
2026-05-09 13:32 30.04128 -81.36909 33328 ft 452 kts 346°
2026-05-09 13:32 30.10374 -81.37271 34138 ft 447 kts 346°
2026-05-09 13:32 30.13474 -81.37450 34528 ft 445 kts 345°
2026-05-09 13:33 30.16563 -81.37628 34839 ft 444 kts 345°
2026-05-09 13:33 30.19643 -81.37806 35150 ft 442 kts 345°
2026-05-09 13:33 30.22707 -81.37985 35439 ft 441 kts 345°
2026-05-09 13:33 30.25769 -81.38165 35721 ft 440 kts 345°
2026-05-09 13:34 30.28823 -81.38345 36002 ft 439 kts 345°
2026-05-09 13:34 30.31870 -81.38523 36272 ft 438 kts 345°
2026-05-09 13:34 30.34911 -81.38697 36538 ft 437 kts 345°
2026-05-09 13:34 30.37943 -81.38874 36796 ft 436 kts 344°
2026-05-09 13:35 30.40971 -81.39054 36970 ft 436 kts 344°
2026-05-09 13:35 30.43986 -81.39231 37010 ft 432 kts 344°
2026-05-09 13:35 30.49982 -81.39571 37008 ft 431 kts 345°
2026-05-09 13:36 30.55970 -81.39886 37025 ft 431 kts 345°
2026-05-09 13:36 30.61952 -81.40193 37021 ft 431 kts 345°
2026-05-09 13:37 30.67938 -81.40507 37058 ft 431 kts 344°
2026-05-09 13:37 30.73925 -81.40831 37052 ft 431 kts 344°
2026-05-09 13:38 30.79918 -81.41152 37039 ft 431 kts 344°
2026-05-09 13:38 30.85907 -81.41466 37031 ft 431 kts 344°
2026-05-09 13:39 30.91901 -81.41782 37023 ft 431 kts 344°
2026-05-09 13:39 30.97854 -81.42096 37047 ft 431 kts 344°
2026-05-09 13:40 31.03851 -81.42425 37038 ft 432 kts 344°
2026-05-09 13:40 31.09851 -81.42746 37032 ft 432 kts 344°
2026-05-09 13:41 31.15860 -81.43065 37029 ft 432 kts 344°
2026-05-09 13:41 31.21875 -81.43365 37043 ft 436 kts 347°
2026-05-09 13:42 31.24959 -81.43060 37077 ft 455 kts 358°
2026-05-09 13:42 31.28065 -81.42034 37037 ft 474 kts 10°
2026-05-09 13:42 31.34128 -81.38760 37023 ft 481 kts 13°
2026-05-09 13:43 31.39165 -81.36007 37015 ft 481 kts 13°
2026-05-09 13:43 31.45244 -81.32705 37015 ft 482 kts 13°
2026-05-09 13:44 31.51328 -81.29399 37058 ft 482 kts 13°
2026-05-09 13:44 31.57413 -81.26093 37022 ft 482 kts 13°
2026-05-09 13:45 31.63504 -81.22775 37016 ft 483 kts 13°
2026-05-09 13:45 31.69596 -81.19455 37004 ft 483 kts 13°
2026-05-09 13:46 31.75688 -81.16123 37003 ft 483 kts 13°
2026-05-09 13:46 31.81779 -81.12779 37022 ft 483 kts 13°
2026-05-09 13:47 31.87869 -81.09447 37006 ft 483 kts 13°
2026-05-09 13:47 31.93965 -81.06103 37001 ft 483 kts 13°
2026-05-09 13:48 32.00060 -81.02745 36998 ft 484 kts 13°
2026-05-09 13:48 32.06147 -80.99359 36989 ft 483 kts 13°
2026-05-09 13:49 32.12189 -80.95966 36982 ft 481 kts 13°
2026-05-09 13:49 32.18233 -80.92578 37010 ft 481 kts 13°
2026-05-09 13:50 32.24287 -80.89183 37006 ft 482 kts 13°
2026-05-09 13:50 32.30341 -80.85775 37060 ft 482 kts 13°
2026-05-09 13:51 32.36390 -80.82364 37044 ft 481 kts 13°
2026-05-09 13:51 32.42437 -80.78960 37044 ft 481 kts 13°
2026-05-09 13:52 32.48477 -80.75554 37040 ft 481 kts 13°
2026-05-09 13:52 32.54474 -80.72159 37033 ft 481 kts 13°
2026-05-09 13:53 32.60505 -80.68738 37056 ft 480 kts 12°
2026-05-09 13:53 32.66528 -80.65327 37044 ft 479 kts 12°
2026-05-09 13:54 32.72324 -80.61131 37024 ft 505 kts 30°
2026-05-09 13:54 32.77354 -80.55128 37018 ft 514 kts 36°
2026-05-09 13:55 32.82313 -80.49015 37022 ft 514 kts 36°
2026-05-09 13:55 32.87269 -80.42904 37022 ft 512 kts 36°
2026-05-09 13:56 32.92228 -80.36812 37021 ft 512 kts 35°
2026-05-09 13:56 32.97183 -80.30729 37016 ft 512 kts 36°
2026-05-09 13:57 33.02137 -80.24624 37020 ft 512 kts 36°
2026-05-09 13:57 33.07082 -80.18505 36997 ft 512 kts 36°
2026-05-09 13:58 33.12024 -80.12385 37001 ft 512 kts 36°
2026-05-09 13:58 33.16960 -80.06264 37008 ft 511 kts 36°
2026-05-09 13:59 33.21884 -80.00142 37012 ft 511 kts 36°
2026-05-09 13:59 33.26806 -79.94010 37020 ft 511 kts 36°
2026-05-09 14:00 33.30098 -79.89912 37047 ft 511 kts 36°
2026-05-09 14:00 33.36651 -79.81730 37024 ft 512 kts 36°
2026-05-09 14:01 33.41562 -79.75578 36998 ft 511 kts 36°
2026-05-09 14:01 33.46474 -79.69421 37008 ft 511 kts 36°
2026-05-09 14:02 33.51381 -79.63264 37012 ft 511 kts 36°
2026-05-09 14:02 33.56286 -79.57097 37005 ft 511 kts 36°
2026-05-09 14:03 33.61182 -79.50922 36999 ft 511 kts 36°
2026-05-09 14:03 33.66078 -79.44729 36998 ft 511 kts 36°
2026-05-09 14:04 33.70946 -79.38573 36998 ft 512 kts 36°
2026-05-09 14:04 33.75878 -79.32332 37107 ft 512 kts 36°
2026-05-09 14:05 33.80761 -79.26142 37009 ft 508 kts 36°
2026-05-09 14:05 33.85614 -79.19972 37011 ft 508 kts 36°
2026-05-09 14:06 33.90430 -79.13835 37013 ft 508 kts 36°
2026-05-09 14:06 33.95284 -79.07639 36997 ft 509 kts 36°
2026-05-09 14:07 34.00141 -79.01436 37041 ft 509 kts 36°
2026-05-09 14:07 34.04993 -78.95227 37021 ft 508 kts 36°
2026-05-09 14:08 34.09827 -78.89017 37017 ft 508 kts 36°
2026-05-09 14:08 34.14663 -78.82802 37010 ft 508 kts 36°
2026-05-09 14:09 34.19493 -78.76581 37007 ft 507 kts 36°
2026-05-09 14:09 34.21909 -78.73468 37112 ft 507 kts 35°
2026-05-09 14:09 34.24325 -78.70357 37052 ft 507 kts 35°
2026-05-09 14:10 34.31546 -78.61021 37017 ft 506 kts 34°
2026-05-09 14:10 34.34087 -78.58164 37016 ft 491 kts 25°
2026-05-09 14:11 34.36769 -78.55619 37019 ft 490 kts 24°
2026-05-09 14:11 34.42146 -78.50561 37006 ft 490 kts 24°
2026-05-09 14:12 34.47530 -78.45488 37047 ft 491 kts 24°
2026-05-09 14:12 34.52914 -78.40380 37026 ft 492 kts 24°
2026-05-09 14:13 34.58267 -78.35288 37018 ft 492 kts 24°
2026-05-09 14:15 34.79913 -78.14664 37012 ft 498 kts 25°
2026-05-09 14:15 34.85359 -78.09427 37015 ft 500 kts 25°
2026-05-09 14:16 34.90833 -78.04196 37018 ft 500 kts 24°
2026-05-09 14:16 34.96333 -77.98966 37029 ft 502 kts 24°
2026-05-09 14:17 35.01847 -77.93693 37002 ft 504 kts 25°
2026-05-09 14:17 35.07368 -77.88392 37016 ft 505 kts 25°
2026-05-09 14:18 35.12891 -77.83083 37020 ft 506 kts 25°
2026-05-09 14:18 35.18430 -77.77753 37068 ft 507 kts 25°
2026-05-09 14:19 35.23968 -77.72422 37065 ft 507 kts 25°
2026-05-09 14:19 35.29502 -77.67075 37064 ft 507 kts 25°
2026-05-09 14:20 35.35034 -77.61715 37061 ft 507 kts 25°
2026-05-09 14:20 35.40558 -77.56344 37043 ft 507 kts 25°
2026-05-09 14:21 35.48856 -77.48290 37024 ft 507 kts 25°
2026-05-09 14:21 35.54386 -77.42913 37028 ft 507 kts 25°
2026-05-09 14:22 35.59910 -77.37532 37081 ft 507 kts 25°
2026-05-09 14:22 35.65417 -77.32150 37026 ft 505 kts 25°
2026-05-09 14:23 35.70909 -77.26767 37018 ft 505 kts 25°
2026-05-09 14:23 35.76369 -77.21412 37001 ft 505 kts 25°
2026-05-09 14:24 35.81864 -77.16023 37056 ft 506 kts 26°
2026-05-09 14:24 35.87361 -77.10607 37055 ft 506 kts 26°
2026-05-09 14:25 35.92916 -77.05361 37044 ft 492 kts 18°
2026-05-09 14:25 35.98765 -77.01092 37035 ft 488 kts 16°
2026-05-09 14:26 36.04621 -76.96838 37086 ft 489 kts 17°
2026-05-09 14:26 36.10460 -76.92584 36995 ft 486 kts 17°
2026-05-09 14:27 36.16283 -76.88330 36994 ft 486 kts 17°
2026-05-09 14:27 36.22105 -76.84056 36984 ft 487 kts 17°
2026-05-09 14:28 36.27946 -76.79758 37044 ft 488 kts 17°
2026-05-09 14:28 36.32844 -76.76159 37017 ft 489 kts 17°
2026-05-09 14:29 36.39649 -76.71142 37007 ft 490 kts 17°
2026-05-09 14:29 36.44564 -76.67518 37005 ft 490 kts 17°
2026-05-09 14:30 36.50433 -76.63178 37019 ft 492 kts 17°
2026-05-09 14:30 36.56309 -76.58832 37008 ft 492 kts 17°
2026-05-09 14:31 36.62199 -76.54475 37007 ft 493 kts 17°
2026-05-09 14:31 36.68092 -76.50095 37000 ft 494 kts 17°
2026-05-09 14:32 36.73989 -76.45691 37035 ft 495 kts 18°
2026-05-09 14:32 36.79892 -76.41289 37025 ft 495 kts 18°
2026-05-09 14:33 36.85814 -76.36871 37028 ft 496 kts 18°
2026-05-09 14:33 36.91732 -76.32434 37024 ft 496 kts 18°
2026-05-09 14:34 36.97648 -76.27990 37036 ft 496 kts 19°
2026-05-09 14:34 37.03572 -76.23541 37031 ft 497 kts 19°
2026-05-09 14:35 37.09456 -76.19107 37009 ft 497 kts 19°
2026-05-09 14:35 37.15380 -76.14642 37051 ft 497 kts 19°
2026-05-09 14:36 37.21312 -76.10179 37003 ft 497 kts 19°
2026-05-09 14:36 37.27246 -76.05697 37020 ft 498 kts 19°
2026-05-09 14:37 37.33172 -76.01195 37020 ft 498 kts 20°
2026-05-09 14:37 37.39103 -75.96678 37045 ft 498 kts 20°
2026-05-09 14:38 37.45027 -75.92165 37032 ft 498 kts 20°
2026-05-09 14:38 37.50952 -75.87657 37032 ft 497 kts 20°
2026-05-09 14:39 37.56879 -75.83148 37038 ft 497 kts 20°
2026-05-09 14:39 37.62824 -75.78703 37035 ft 497 kts 20°
2026-05-09 14:40 37.68779 -75.74261 37028 ft 497 kts 20°
2026-05-09 14:40 37.74730 -75.69799 37027 ft 498 kts 20°
2026-05-09 14:41 37.80683 -75.65314 37061 ft 498 kts 20°
2026-05-09 14:41 37.86597 -75.60756 37054 ft 500 kts 23°
2026-05-09 14:42 37.92371 -75.55776 37048 ft 503 kts 26°
2026-05-09 14:42 37.98067 -75.50618 37031 ft 503 kts 26°
2026-05-09 14:43 38.03768 -75.45542 37002 ft 497 kts 26°
2026-05-09 14:43 38.09485 -75.40679 36980 ft 493 kts 23°
2026-05-09 14:44 38.15288 -75.36055 36993 ft 493 kts 22°
2026-05-09 14:44 38.21106 -75.31424 37042 ft 494 kts 22°
2026-05-09 14:45 38.24087 -75.29354 37039 ft 483 kts 14°
2026-05-09 14:45 38.27188 -75.27882 37031 ft 469 kts
2026-05-09 14:45 38.30332 -75.27020 37032 ft 458 kts 358°
2026-05-09 14:45 38.33474 -75.26364 37030 ft 458 kts 358°
2026-05-09 14:46 38.39769 -75.25058 37033 ft 458 kts 358°
2026-05-09 14:46 38.46063 -75.23742 37026 ft 457 kts 359°
2026-05-09 14:47 38.52332 -75.22411 37005 ft 457 kts 359°
2026-05-09 14:47 38.58614 -75.21085 37006 ft 458 kts 359°
2026-05-09 14:48 38.64903 -75.19769 37036 ft 458 kts 359°
2026-05-09 14:48 38.71115 -75.17386 37008 ft 482 kts 19°
2026-05-09 14:49 38.73999 -75.15095 37001 ft 494 kts 30°
2026-05-09 14:49 38.76728 -75.12396 36909 ft 497 kts 30°
2026-05-09 14:49 38.79462 -75.09692 36563 ft 495 kts 30°
2026-05-09 14:49 38.82188 -75.07003 35953 ft 493 kts 30°
2026-05-09 14:50 38.84908 -75.04330 35372 ft 492 kts 30°
2026-05-09 14:50 38.87627 -75.01667 34720 ft 491 kts 30°
2026-05-09 14:50 38.90345 -74.99005 34061 ft 491 kts 30°
2026-05-09 14:50 38.93061 -74.96340 33325 ft 490 kts 31°
2026-05-09 14:51 38.95722 -74.93722 32675 ft 488 kts 31°
2026-05-09 14:51 38.98412 -74.91072 31972 ft 486 kts 32°
2026-05-09 14:51 39.01092 -74.88425 31265 ft 485 kts 32°
2026-05-09 14:51 39.03764 -74.85780 30574 ft 484 kts 32°
2026-05-09 14:52 39.06432 -74.83138 29815 ft 484 kts 33°
2026-05-09 14:52 39.09083 -74.80510 29206 ft 478 kts 33°
2026-05-09 14:52 39.11680 -74.77878 28598 ft 474 kts 34°
2026-05-09 14:52 39.14215 -74.75197 27995 ft 469 kts 36°
2026-05-09 14:53 39.16701 -74.72488 27400 ft 465 kts 36°
2026-05-09 14:53 39.19145 -74.69787 26804 ft 461 kts 37°
2026-05-09 14:53 39.21570 -74.67103 26222 ft 457 kts 36°
2026-05-09 14:53 39.23979 -74.64451 25672 ft 453 kts 36°
2026-05-09 14:54 39.26380 -74.61833 25094 ft 450 kts 36°
2026-05-09 14:54 39.28765 -74.59246 24552 ft 446 kts 36°
2026-05-09 14:54 39.31134 -74.56685 24021 ft 443 kts 36°
2026-05-09 14:54 39.33488 -74.54139 23506 ft 440 kts 36°
2026-05-09 14:55 39.35823 -74.51608 22966 ft 435 kts 36°
2026-05-09 14:55 39.38127 -74.49106 22499 ft 430 kts 36°
2026-05-09 14:55 39.40404 -74.46629 22009 ft 425 kts 36°
2026-05-09 14:55 39.42653 -74.44178 21562 ft 421 kts 36°
2026-05-09 14:56 39.44885 -74.41743 21075 ft 418 kts 36°
2026-05-09 14:56 39.47098 -74.39324 20586 ft 415 kts 36°
2026-05-09 14:56 39.49294 -74.36919 20094 ft 412 kts 36°
2026-05-09 14:56 39.51476 -74.34531 19595 ft 409 kts 36°
2026-05-09 14:57 39.53643 -74.32160 19100 ft 407 kts 36°
2026-05-09 14:57 39.55804 -74.29790 18600 ft 406 kts 36°
2026-05-09 14:57 39.57950 -74.27431 18060 ft 404 kts 36°
2026-05-09 14:57 39.60093 -74.25078 17608 ft 400 kts 36°
2026-05-09 14:58 39.62207 -74.22758 17268 ft 398 kts 36°
2026-05-09 14:58 39.64314 -74.20443 16890 ft 395 kts 36°
2026-05-09 14:58 39.66404 -74.18142 16499 ft 393 kts 37°
2026-05-09 14:58 39.68485 -74.15850 16108 ft 391 kts 37°
2026-05-09 14:59 39.70555 -74.13568 15727 ft 389 kts 37°
2026-05-09 14:59 39.72611 -74.11299 15345 ft 387 kts 37°
2026-05-09 14:59 39.74661 -74.09037 14960 ft 385 kts 37°
2026-05-09 14:59 39.76700 -74.06786 14593 ft 384 kts 38°
2026-05-09 15:00 39.78729 -74.04545 14226 ft 382 kts 38°
2026-05-09 15:00 39.80748 -74.02311 13866 ft 380 kts 38°
2026-05-09 15:00 39.82758 -74.00084 13444 ft 379 kts 38°
2026-05-09 15:00 39.84867 -73.98068 13079 ft 374 kts 28°
2026-05-09 15:01 39.89393 -73.94847 12345 ft 368 kts 26°
2026-05-09 15:01 39.91640 -73.93261 11989 ft 366 kts 26°
2026-05-09 15:01 39.93866 -73.91687 11636 ft 364 kts 26°
2026-05-09 15:02 39.96077 -73.90122 11324 ft 357 kts 26°
2026-05-09 15:02 39.98257 -73.88578 11010 ft 354 kts 26°
2026-05-09 15:02 40.00363 -73.87073 11025 ft 336 kts 27°
2026-05-09 15:02 40.02345 -73.85615 11021 ft 329 kts 27°
2026-05-09 15:03 40.04349 -73.84130 11019 ft 327 kts 27°
2026-05-09 15:03 40.06301 -73.82685 11019 ft 327 kts 27°
2026-05-09 15:03 40.08279 -73.81222 11019 ft 327 kts 27°
2026-05-09 15:03 40.10257 -73.79761 11019 ft 325 kts 27°
2026-05-09 15:04 40.12192 -73.78328 10883 ft 316 kts 27°
2026-05-09 15:04 40.14093 -73.76922 10579 ft 313 kts 27°
2026-05-09 15:06 40.27204 -73.67510 8044 ft 301 kts 27°
2026-05-09 15:06 40.29008 -73.66224 7666 ft 299 kts 27°
2026-05-09 15:06 40.30827 -73.64924 7280 ft 297 kts 27°
2026-05-09 15:06 40.32642 -73.63633 6848 ft 297 kts 27°
2026-05-09 15:07 40.34458 -73.62351 6470 ft 296 kts 27°
2026-05-09 15:07 40.36261 -73.61076 6070 ft 294 kts 27°
2026-05-09 15:07 40.38055 -73.59805 5673 ft 292 kts 27°
2026-05-09 15:07 40.39832 -73.58537 5294 ft 290 kts 27°
2026-05-09 15:08 40.41592 -73.57273 4912 ft 287 kts 27°
2026-05-09 15:08 40.45074 -73.54743 4096 ft 285 kts 27°
2026-05-09 15:08 40.46794 -73.53482 4013 ft 284 kts 27°
2026-05-09 15:09 40.48526 -73.52211 4015 ft 286 kts 27°
2026-05-09 15:10 40.60689 -73.43281 4018 ft 286 kts 27°
2026-05-09 15:11 40.62426 -73.41994 4019 ft 286 kts 27°
2026-05-09 15:11 40.64160 -73.40707 4018 ft 286 kts 27°
2026-05-09 15:11 40.65899 -73.39421 4018 ft 287 kts 27°
2026-05-09 15:11 40.67637 -73.38129 4016 ft 287 kts 27°
2026-05-09 15:12 40.69374 -73.36833 4018 ft 287 kts 27°
2026-05-09 15:12 40.71112 -73.35543 4018 ft 287 kts 27°
2026-05-09 15:12 40.72845 -73.34245 4017 ft 287 kts 27°
2026-05-09 15:12 40.74631 -73.33099 4016 ft 283 kts 11°
2026-05-09 15:13 40.75899 -73.32883 4019 ft 275 kts 351°
2026-05-09 15:13 40.77645 -73.33514 4028 ft 246 kts 321°
2026-05-09 15:13 40.78767 -73.35001 4014 ft 218 kts 293°
2026-05-09 15:13 40.79442 -73.36691 4010 ft 201 kts 288°
2026-05-09 15:14 40.80040 -73.38346 4010 ft 199 kts 287°
2026-05-09 15:14 40.80627 -73.39996 4009 ft 198 kts 287°
2026-05-09 15:14 40.81212 -73.41644 4008 ft 198 kts 287°
2026-05-09 15:14 40.81795 -73.43292 4008 ft 198 kts 287°
2026-05-09 15:15 40.82377 -73.44936 4007 ft 198 kts 287°
2026-05-09 15:15 40.82960 -73.46579 4005 ft 198 kts 287°
2026-05-09 15:15 40.83544 -73.48221 3961 ft 197 kts 287°
2026-05-09 15:15 40.84123 -73.49846 3663 ft 195 kts 287°
2026-05-09 15:16 40.84698 -73.51467 3379 ft 194 kts 287°
2026-05-09 15:16 40.85266 -73.53079 3089 ft 193 kts 287°
2026-05-09 15:16 40.85766 -73.54701 2800 ft 186 kts 273°
2026-05-09 15:16 40.85591 -73.56303 2503 ft 176 kts 244°
2026-05-09 15:17 40.85000 -73.57727 2183 ft 178 kts 238°
2026-05-09 15:17 40.84346 -73.59103 2009 ft 173 kts 237°
2026-05-09 15:17 40.83666 -73.60365 1991 ft 167 kts 223°
2026-05-09 15:17 40.82683 -73.61168 1995 ft 165 kts 214°
2026-05-09 15:18 40.81713 -73.61966 1997 ft 164 kts 215°
2026-05-09 15:18 40.80753 -73.62739 2007 ft 155 kts 214°
2026-05-09 15:18 40.79884 -73.63427 2000 ft 138 kts 213°
2026-05-09 15:18 40.79085 -73.64059 1995 ft 131 kts 213°
2026-05-09 15:19 40.78311 -73.64670 1998 ft 129 kts 213°
2026-05-09 15:19 40.77547 -73.65272 2018 ft 128 kts 214°
2026-05-09 15:19 40.76780 -73.65875 2007 ft 128 kts 214°
2026-05-09 15:19 40.76014 -73.66477 2008 ft 127 kts 215°
2026-05-09 15:20 40.75256 -73.67072 2008 ft 127 kts 214°
2026-05-09 15:20 40.73738 -73.68265 1999 ft 128 kts 213°
2026-05-09 15:20 40.72971 -73.68866 1907 ft 128 kts 214°
2026-05-09 15:21 40.72208 -73.69465 1773 ft 127 kts 213°
2026-05-09 15:21 40.71453 -73.70057 1636 ft 127 kts 213°
2026-05-09 15:21 40.70696 -73.70650 1458 ft 126 kts 213°
2026-05-09 15:21 40.69945 -73.71239 1290 ft 125 kts 213°
2026-05-09 15:22 40.69192 -73.71829 1116 ft 125 kts 212°
2026-05-09 15:22 40.68453 -73.72408 952 ft 125 kts 212°
2026-05-09 15:22 40.67692 -73.73004 781 ft 125 kts 211°
2026-05-09 15:22 40.66941 -73.73593 621 ft 127 kts 210°
2026-05-09 15:23 40.66192 -73.74185 476 ft 128 kts 208°
2026-05-09 15:23 40.65421 -73.74793 302 ft 129 kts 208°
2026-05-09 15:23 40.64645 -73.75400 110 ft 129 kts 206°
2026-05-09 15:23 40.63887 -73.75965 21 ft 112 kts 211°
2026-05-09 15:24 40.63374 -73.76373 23 ft 61 kts 210°
2026-05-09 15:24 40.63119 -73.76593 19 ft 38 kts 218°
2026-05-09 15:24 40.62981 -73.76782 21 ft 28 kts 237°
2026-05-09 15:24 40.62936 -73.76969 22 ft 19 kts 281°
2026-05-09 15:25 40.62998 -73.77115 24 ft 17 kts 301°
2026-05-09 15:25 40.63049 -73.77235 27 ft 13 kts 299°
2026-05-09 15:25 40.63093 -73.77336 28 ft 12 kts 300°
2026-05-09 15:26 40.63167 -73.77502 30 ft 9 kts 300°
2026-05-09 15:26 40.63198 -73.77572 30 ft 12 kts 302°
2026-05-09 15:26 40.63266 -73.77717 27 ft 20 kts 301°
2026-05-09 15:26 40.63328 -73.77863 26 ft 16 kts 299°
2026-05-09 15:27 40.63413 -73.77903 24 ft 14 kts 22°
2026-05-09 15:27 40.63493 -73.77843 23 ft 13 kts 27°
2026-05-09 15:27 40.63575 -73.77865 23 ft 12 kts 325°
2026-05-09 15:27 40.63653 -73.77896 23 ft 11 kts 353°
2026-05-09 15:28 40.63713 -73.77940 23 ft 9 kts 298°
2026-05-09 15:28 40.63716 -73.78003 23 ft 5 kts 262°
2026-05-09 15:28 40.63713 -73.78025 23 ft 0 kts 261°